Regional Weather Roundup
Issued by NWS

Home | Current Version | Previous Version | Text Only | Print | Product List | Glossary Off
Versions: 1 2 3 4 5 6 7 8 9 10 11 12 13 14 15 16 17 18 19 20 21 22 23 24 25 26 27 28 29 30 31 32 33 34 35 36 37 38 39 40 41 42 43 44 45 46 47 48 49 50

000
ASUS43 KDTX 062010
RWRMI
MICHIGAN HOURLY REGIONAL WEATHER ROUNDUP
NATIONAL WEATHER SERVICE DETROIT/PONTIAC MI
300 PM EST SAT FEB 06 2016

NOTE: "FAIR" INDICATES FEW OR NO CLOUDS BELOW 12,000 FEET WITH NO
SIGNIFICANT WEATHER AND/OR OBSTRUCTION TO VISIBILITY.

MIZ047>049-052>055-059>063-066>070-074>076-081>083-062100-
SOUTHEAST LOWER MICHIGAN

CITY           SKY/WX    TMP DP  RH WIND       PRES   REMARKS
ADRIAN         SUNNY     42  24  49 SW9       30.19F
ALMA           CLOUDY    35  26  69 SW14G22   30.13F WCI  25
ANN ARBOR      SUNNY     38  22  52 SW14      30.16F WCI  30
BAD AXE        CLOUDY    37  21  53 W20G28    30.10F WCI  26
CARO           PTSUNNY   37  20  52 SW9G26    30.12F WCI  30
DETROIT CITY   PTSUNNY   39  20  46 SW12      30.17F WCI  32
DETROIT        PTSUNNY   38  22  52 SW16      30.19F WCI  29
FLINT          CLOUDY    39  19  44 SW14G25   30.14F WCI  31
GROSSE ILE     SUNNY     36  28  75 S15       30.17F WCI  26
HILLSDALE      SUNNY     35  20  55 SW12      30.16F WCI  27
HOWELL         PTSUNNY   37  21  53 SW13G18   30.14F WCI  28

CITY           SKY/WX    TMP DP  RH WIND       PRES   REMARKS
JACKSON        MOSUNNY   37  21  52 W12       30.16F WCI  29
LAMBERTVILLE   SUNNY     37  25  62 SW10      30.20F WCI  29
LANSING        PTSUNNY   35  18  49 SW13      30.15F WCI  26
LAPEER         CLOUDY    37  19  47 W15G22    30.13F WCI  28
MASON          CLOUDY    35  20  54 W9        30.15F WCI  28
MONROE         SUNNY     37  25  62 SW13      30.18F WCI  28
MT. CLEMENS    PTSUNNY   39  19  44 SW13      30.14F WCI  32
PONTIAC        CLOUDY    38  17  42 SW12      30.13F WCI  30
PORT HOPE        N/A     35  23  61 SW10G23   30.08F WCI  27
PORT HURON     PTSUNNY   39  23  52 S12       30.15F WCI  32
TRI CITIES     CLOUDY    36  23  59 SW16      30.13S WCI  26
MIDLAND        FAIR      35  22  59 SW10      30.11F WCI  27
TROY           SUNNY     40  19  43 SW8G20    30.17F WCI  34
SAGINAW HB     CLOUDY    36  23  60 SW20G26   30.12F WCI  25
$$
MIZ043>046-050>051-056>058-064>065-071>073-077>080-062100-
SOUTHWEST LOWER MICHIGAN

CITY           SKY/WX    TMP DP  RH WIND       PRES   REMARKS
BATTLE CREEK   MOSUNNY   34  19  54 SW15      30.17F WCI  24
BENTON HARBOR  PTSUNNY   37  24  59 W14       30.18F WCI  28
BIG RAPIDS     CLOUDY    32  26  80 W14       30.09F WCI  22
COLDWATER      SUNNY     36  23  58 SW13      30.17F WCI  28
FREMONT        CLOUDY    32  27  80 SW10      30.12F WCI  24
HOLLAND        CLOUDY    34  26  72 SW14      30.17F WCI  25
GRAND RAPIDS   CLOUDY    34  23  64 SW18      30.16F WCI  23
IONIA          FAIR      33  22  65 SW16      30.14F WCI  22
KALAMAZOO      MOSUNNY   36  20  52 SW9       30.17F WCI  29
LUDINGTON      CLOUDY    32  27  82 SW9G16    30.11F WCI  24
MARSHALL       SUNNY     35  21  57 W10       30.16F WCI  27
MOUNT PLEASANT PTSUNNY   36  22  56 SW16      30.10F WCI  26
MUSKEGON       CLOUDY    34  25  69 SW15      30.14F WCI  24
SOUTH HAVEN    PTSUNNY   35  26  68 SW8       30.18F WCI  29
$$
MIZ016>042-062100-
NORTHERN LOWER MICHIGAN

CITY           SKY/WX    TMP DP  RH WIND       PRES   REMARKS
ALPENA         CLOUDY    31  23  72 W13G21    30.05S WCI  21
BEAVER ISLAND  CLOUDY    29  21  72 W14       30.04F WCI  19
BELLAIRE       CLOUDY    30  25  81 SW8G17    30.08S WCI  22
CADILLAC       CLOUDY    29  25  84 SW14      30.04F FOG     WCI  19
CHARLEVOIX     CLOUDY    30  23  75 SW14      30.09S WCI  19
FRANKFORT      CLOUDY    31  25  80 SW6       30.09F WCI  25
GAYLORD        CLOUDY    27  23  85 W16       30.02F WCI  15
GRAYLING       CLOUDY    29  25  85 W13G18    30.05F WCI  18
HARBOR SPRINGS CLOUDY    30  23  77 SW14G21   30.05R WCI  19
HOUGHTON LAKE  CLOUDY    30  23  75 W13G18    30.06F WCI  20
MANISTEE       CLOUDY    30  21  69 SW10G17   30.10F WCI  21
OSCODA         CLOUDY    34  24  67 SW16      30.06F WCI  23
PELLSTON       CLOUDY    30  20  66 SW13G21   30.04S WCI  20
ROGERS CITY    CLOUDY    30  24  76 W12G18    30.04F WCI  21
TRAVERSE CITY  CLOUDY    31  24  75 W9        30.07F WCI  23
$$
MIZ007>008-015-062100-
EASTERN UPPER MICHIGAN

CITY           SKY/WX    TMP DP  RH WIND       PRES   REMARKS
KINROSS        CLOUDY    28  25  86 W7G16     29.99F WCI  21
MACKINAC ISLAN CLOUDY    29  22  75 SW14      30.02S WCI  19
NEWBERRY       CLOUDY    28  21  72 SW9       30.00S WCI  20
S. S. MARIE    CLOUDY    29  21  72 W9G17     29.99R WCI  20
MUNISING         N/A     33  18  53 W3        29.99F
$$
MIZ004>006-011>014-085-062100-
CENTRAL UPPER MICHIGAN

CITY           SKY/WX    TMP DP  RH WIND       PRES   REMARKS
MANISTIQUE     PTSUNNY   31  20  63 SW8       30.02F WCI  24
ESCANABA       PTSUNNY   30  18  59 SW7       30.03F WCI  23
MENOMINEE      CLOUDY    28  21  74 W9G17     30.05F WCI  20
SAWYER-GWINN   PTSUNNY   28  18  64 SW7       29.97F WCI  21
$$
MIZ001>003-009>011-084-062100-
WESTERN UPPER MICHIGAN

CITY           SKY/WX    TMP DP  RH WIND       PRES   REMARKS
IRON MOUNTAIN  PTSUNNY   29  19  66 SW8       29.98F WCI  21
HOUGHTON       CLOUDY    28  20  71 SW7       29.93F WCI  21
COPPER HARBOR    N/A     27  23  85 CALM      29.97F
IRONWOOD       CLOUDY    32  21  64 S9        29.90F WCI  24
$$

ABBREVIATIONS USED IN REMARKS
   TC - TEMPERATURE IN CELSIUS
  WCI - WIND CHILL INDEX
   HX - HEAT INDEX
  VSB - VISIBILITY




USA.gov is the U.S. government's official web portal to all federal, state and local government web resources and services.